Location: Le Hiès Ruisseau
(43.3000°N, 0.4500°W)
Time: 02:10:19
(UTC+00:00)

SKYMED 2 - Pass Details

Date: 28 January 2023
Orbit: 621 x 623 km, 97.9° (Epoch: 27 March)

Event Time Altitude Azimuth Distance (km) Brightness Sun altitude
Rises 17:41:58 0° 19° (NNE) 2,917 6.6 -6.6°
Reaches altitude 10° 17:44:16 10° 26° (NNE) 2,005 5.8 -7.0°
Maximum altitude 17:48:26 43° 99° (E) 882 4.0 -7.7°
Drops below altitude 10° 17:52:33 10° 171° (S) 1,989 6.3 -8.4°
Sets 17:54:49 0° 178° (S) 2,890 7.2 -8.8°
